Location: Newark
(47.3150°N, 5.1150°E)
Time: 05:48:26
(UTC+00:00)

AO-7 - Pass Details

Date: 21 December 2019
Orbit: 1440 x 1458 km, 101.8° (Epoch: 20 January)

Event Time Altitude Azimuth Distance (km) Brightness Sun altitude
Rises 04:08:17 0° 17° (NNE) 4,565 ? -31.9°
Reaches altitude 10° 04:11:04 10° 16° (NNE) 3,586 ? -31.4°
Maximum altitude 04:19:23 72° 294° (WNW) 1,523 ? -30.0°
Enters shadow 04:22:01 48° 227° (SW) 1,838 ? -29.5°
